Date String (YYYY-MM-DD hh:mm:ss) UTC,Instrument flags,Ambient pressure (hPa),Sample flow (lpm),Bypass flow (lpm),Sample temperature (°C),Ambient temperature (°C),ASC tube jacket temperature (°C),LED temperature (°C),Box temperature (°C),Sample RH (%),Span deviation,Mass concentration (μg/m³),Mass concentration (μg/m³),Mass concentration (μg/m³)
DateTimeUTC,F1_M11,P_M11,Q1_M11,Q2_M11,T1_M11,T2_M11,T3_M11,T4_M11,T5_M11,U1_M11,ZSPAN_M11,X0_M11,X2_M11,X1_M11
2022-06-29 00:00:00,,0829.5,5.00,0.00,29.2,28.1,00.0,37.9,31.2,15.2,0000.0,0009.44,0004.72,0003.98
2022-06-29 00:01:00,,0829.5,5.00,0.00,29.2,28.3,00.0,37.9,31.3,15.2,0000.0,0009.40,0004.73,0003.99
2022-06-29 00:02:00,,0829.5,5.00,0.00,29.3,28.1,00.0,37.9,31.2,14.9,0000.0,0009.47,0004.78,0004.01
2022-06-29 00:03:00,,0829.5,5.01,0.00,29.2,27.3,00.0,37.9,31.0,14.8,0000.0,0009.73,0004.83,0004.05
2022-06-29 00:04:00,,0829.5,5.00,0.00,29.2,27.1,00.0,37.8,30.9,15.0,0000.0,0009.87,0004.83,0004.05
2022-06-29 00:05:00,,0829.5,5.00,0.00,29.1,27.2,00.0,37.8,30.9,15.0,0000.0,0009.88,0004.84,0004.06
2022-06-29 00:06:00,,0829.5,5.00,0.00,29.1,27.3,00.0,37.8,30.9,15.0,0000.0,0009.98,0004.82,0004.06
2022-06-29 00:07:00,,0829.5,4.99,0.00,29.1,27.5,00.0,37.8,31.0,15.0,0000.0,0010.09,0004.82,0004.06
2022-06-29 00:08:00,,0829.5,5.01,0.00,29.1,27.7,00.0,37.9,31.1,15.3,0000.0,0010.49,0004.79,0004.06
2022-06-29 00:09:00,,0829.5,5.00,0.00,29.2,27.9,00.0,37.9,31.2,16.2,0000.0,0011.43,0004.78,0004.06
2022-06-29 00:10:00,,0829.5,4.99,0.00,29.2,28.1,00.0,37.9,31.2,16.6,0000.0,0011.53,0004.79,0004.05
2022-06-29 00:11:00,,0829.5,5.00,0.00,29.2,28.0,00.0,37.9,31.2,16.8,0000.0,0012.36,0004.79,0004.04
2022-06-29 00:12:00,,0829.5,5.00,0.00,29.2,27.3,00.0,37.9,31.0,16.3,0000.0,0012.98,0004.80,0004.03
2022-06-29 00:13:00,,0829.5,5.00,0.00,29.1,27.0,00.0,37.8,30.9,16.4,0000.0,0012.92,0004.76,0004.02
2022-06-29 00:14:00,,0829.5,5.01,0.00,29.1,27.0,00.0,37.8,30.9,16.8,0000.0,0012.60,0004.71,0004.01
2022-06-29 00:15:00,,0829.5,5.00,0.00,29.1,27.2,00.0,37.8,30.9,17.0,0000.0,0012.06,0004.69,0004.01
2022-06-29 00:16:00,,0829.5,4.99,0.00,29.1,27.4,00.0,37.8,30.9,17.0,0000.0,0012.55,0004.69,0004.01
2022-06-29 00:17:00,,0829.4,5.00,0.00,29.1,27.6,00.0,37.8,31.0,16.9,0000.0,0012.51,0004.75,0004.03
2022-06-29 00:18:00,,0829.5,4.99,0.00,29.1,27.8,00.0,37.9,31.1,17.1,0000.0,0012.70,0004.78,0004.04
2022-06-29 00:19:00,,0829.5,5.01,0.00,29.2,28.0,00.0,37.9,31.2,17.6,0000.0,0013.69,0004.80,0004.05
2022-06-29 00:20:00,,0829.5,5.01,0.00,29.2,28.2,00.0,37.9,31.2,18.2,0000.0,0012.99,0004.79,0004.07
2022-06-29 00:21:00,,0829.5,5.00,0.00,29.2,27.7,00.0,37.9,31.1,18.0,0000.0,0013.19,0004.78,0004.07
2022-06-29 00:22:00,,0829.5,5.00,0.00,29.1,27.1,00.0,37.8,30.9,17.8,0000.0,0012.55,0004.76,0004.09
2022-06-29 00:23:00,,0829.5,5.00,0.00,29.1,27.0,00.0,37.8,30.9,16.8,0000.0,0013.28,0004.72,0004.09
2022-06-29 00:24:00,,0829.5,5.00,0.00,29.1,27.1,00.0,37.8,30.9,16.7,0000.0,0013.45,0004.69,0004.06
2022-06-29 00:25:00,,0829.5,5.01,0.00,29.1,27.3,00.0,37.8,30.9,17.4,0000.0,0013.74,0004.69,0004.03
2022-06-29 00:26:00,,0829.5,5.01,0.00,29.1,27.5,00.0,37.8,31.0,16.6,0000.0,0014.29,0004.71,0004.00
2022-06-29 00:27:00,,0829.5,5.00,0.00,29.1,27.7,00.0,37.8,31.1,16.6,0000.0,0013.76,0004.69,0003.97
2022-06-29 00:28:00,,0829.5,5.00,0.00,29.1,27.9,00.0,37.9,31.1,15.8,0000.0,0014.50,0004.68,0003.95
2022-06-29 00:29:00,,0829.5,4.99,0.00,29.2,28.1,00.0,37.9,31.2,15.7,0000.0,0015.43,0004.69,0003.93
2022-06-29 00:30:00,,0829.5,5.01,0.00,29.2,28.3,00.0,37.9,31.3,15.5,0000.0,0015.13,0004.71,0003.92
2022-06-29 00:31:00,,0829.4,5.00,0.00,29.2,27.9,00.0,37.9,31.2,14.9,0000.0,0016.17,0004.73,0003.90
2022-06-29 00:32:00,,0829.3,5.01,0.00,29.2,27.3,00.0,37.8,31.0,15.4,0000.0,0016.82,0004.71,0003.88
2022-06-29 00:33:00,,0829.3,5.00,0.00,29.1,27.1,00.0,37.8,30.9,16.0,0000.0,0017.18,0004.71,0003.85
2022-06-29 00:34:00,,0829.3,5.00,0.00,29.1,27.1,00.0,37.8,30.9,16.4,0000.0,0016.03,0004.69,0003.82
2022-06-29 00:35:00,,0829.4,5.00,0.00,29.1,27.3,00.0,37.8,30.9,16.6,0000.0,0017.12,0004.76,0003.84
2022-06-29 00:36:00,,0829.4,4.99,0.00,29.1,27.5,00.0,37.8,31.0,16.3,0000.0,0017.03,0004.78,0003.84
2022-06-29 00:37:00,,0829.4,4.99,0.00,29.1,27.7,00.0,37.9,31.0,15.9,0000.0,0016.52,0004.74,0003.84
2022-06-29 00:38:00,,0829.2,5.01,0.00,29.1,27.9,00.0,37.9,31.1,16.2,0000.0,0017.45,0004.72,0003.85
2022-06-29 00:39:00,,0829.2,5.00,0.00,29.2,28.1,00.0,37.9,31.2,16.2,0000.0,0016.83,0004.68,0003.84
2022-06-29 00:40:00,,0829.3,4.99,0.00,29.2,28.3,00.0,37.9,31.3,15.1,0000.0,0015.88,0004.65,0003.83
2022-06-29 00:41:00,,0829.3,5.00,0.00,29.3,28.3,00.0,37.9,31.3,14.8,0000.0,0014.92,0004.67,0003.84
2022-06-29 00:42:00,,0829.2,5.01,0.00,29.3,27.7,00.0,37.9,31.2,14.7,0000.0,0014.17,0004.68,0003.85
2022-06-29 00:43:00,,0829.2,5.02,0.00,29.2,27.1,00.0,37.9,31.0,15.3,0000.0,0013.27,0004.67,0003.85
2022-06-29 00:44:00,,0829.3,5.00,0.00,29.2,27.1,00.0,37.9,31.0,15.4,0000.0,0013.21,0004.65,0003.85
2022-06-29 00:45:00,,0829.2,5.00,0.00,29.1,27.2,00.0,37.9,30.9,15.6,0000.0,0013.47,0004.66,0003.86
2022-06-29 00:46:00,,0829.3,4.99,0.00,29.1,27.4,00.0,37.9,31.0,16.1,0000.0,0012.93,0004.64,0003.86
2022-06-29 00:47:00,,0829.2,4.99,0.00,29.1,27.6,00.0,37.9,31.0,16.7,0000.0,0013.79,0004.67,0003.86
2022-06-29 00:48:00,,0829.3,5.00,0.00,29.2,27.8,00.0,37.9,31.1,16.7,0000.0,0014.62,0004.70,0003.87
2022-06-29 00:49:00,,0829.2,5.01,0.00,29.2,28.0,00.0,37.9,31.2,16.8,0000.0,0014.46,0004.72,0003.88
2022-06-29 00:50:00,,0829.3,5.00,0.00,29.3,28.2,00.0,37.9,31.3,16.3,0000.0,0014.08,0004.71,0003.88
2022-06-29 00:51:00,,0829.3,5.01,0.00,29.3,28.3,00.0,38.0,31.3,16.5,0000.0,0014.17,0004.73,0003.88
2022-06-29 00:52:00,,0829.3,4.99,0.00,29.3,27.7,00.0,37.9,31.2,15.9,0000.0,0014.04,0004.69,0003.87
2022-06-29 00:53:00,,0829.2,5.00,0.00,29.2,27.1,00.0,37.9,31.0,15.7,0000.0,0013.33,0004.64,0003.87
2022-06-29 00:54:00,,0829.3,5.00,0.00,29.2,27.0,00.0,37.9,30.9,15.4,0000.0,0013.60,0004.65,0003.87
2022-06-29 00:55:00,,0829.3,4.99,0.00,29.1,27.1,00.0,37.9,30.9,15.5,0000.0,0013.33,0004.67,0003.89
2022-06-29 00:56:00,,0829.3,5.00,0.00,29.1,27.3,00.0,37.9,30.9,15.7,0000.0,0013.26,0004.68,0003.91
2022-06-29 00:57:00,,0829.3,5.00,0.00,29.1,27.5,00.0,37.9,31.0,15.9,0000.0,0013.06,0004.69,0003.92
2022-06-29 00:58:00,,0829.2,5.00,0.00,29.1,27.7,00.0,37.9,31.1,15.8,0000.0,0012.32,0004.66,0003.94
2022-06-29 00:59:00,,0829.2,5.00,0.00,29.2,27.9,00.0,37.9,31.1,15.9,0000.0,0012.86,0004.70,0003.95
